| time (UTC) | temp F | wind direction | speed MPH | gust MPH | rain 1hr in | rain 24hr in | rain mn in | humidity % | barometer mb |
| 20260508122043 | 54 | 217 | 3.0 | 3.0 | 0.00 | 0.00 | 0.00 | 89 | 1014.4 |
| 20260508120525 | 54 | 202 | 4.0 | 6.0 | 0.00 | 0.00 | 0.00 | 89 | 1014.4 |
| 20260508120028 | 54 | 207 | 3.0 | 2.0 | 0.00 | 0.00 | 0.00 | 89 | 1014.4 |
| 20260508114655 | 55 | 207 | 3.0 | 5.0 | 0.00 | 0.00 | 0.00 | 88 | 1014.2 |
| 20260508114158 | 55 | 224 | 3.0 | 6.0 | 0.00 | 0.00 | 0.00 | 88 | 1014.3 |
| 20260508114154 | 55 | 184 | 3.0 | 6.0 | 0.00 | 0.00 | 0.00 | 88 | 1014.3 |
| 20260508113150 | 55 | 209 | 2.0 | 6.0 | 0.00 | 0.00 | 0.00 | 88 | 1014.2 |
| 20260508112651 | 55 | 208 | 3.0 | 5.0 | 0.00 | 0.00 | 0.00 | 88 | 1014.2 |
| 20260508112144 | 55 | 211 | 3.0 | 2.0 | 0.00 | 0.00 | 0.00 | 88 | 1014.2 |
| 20260508110841 | 56 | 180 | 3.0 | 6.0 | 0.00 | 0.00 | 0.00 | 88 | 1014.1 |
| 20260508110837 | 56 | 188 | 4.0 | 6.0 | 0.00 | 0.00 | 0.00 | 88 | 1014.1 |
| 20260508105835 | 56 | 205 | 3.0 | 5.0 | 0.00 | 0.00 | 0.00 | 88 | 1014.0 |
| 20260508105330 | 56 | 204 | 3.0 | 4.0 | 0.00 | 0.00 | 0.00 | 88 | 1014.1 |
| 20260508103901 | 56 | 175 | 1.0 | 4.0 | 0.00 | 0.00 | 0.00 | 87 | 1014.1 |
| 20260508103405 | 56 | 219 | 2.0 | 4.0 | 0.00 | 0.00 | 0.00 | 87 | 1014.2 |
| 20260508102903 | 56 | 204 | 2.0 | 5.0 | 0.00 | 0.00 | 0.00 | 87 | 1014.2 |
| 20260508102359 | 56 | 195 | 2.0 | 5.0 | 0.00 | 0.00 | 0.00 | 87 | 1014.2 |
| 20260508101901 | 56 | 205 | 2.0 | 4.0 | 0.00 | 0.00 | 0.00 | 87 | 1014.2 |
| 20260508101352 | 56 | 171 | 2.0 | 1.0 | 0.00 | 0.00 | 0.00 | 87 | 1014.3 |
| 20260508095807 | 56 | 211 | 4.0 | 6.0 | 0.00 | 0.00 | 0.00 | 87 | 1014.2 |
| 20260508095802 | 56 | 208 | 3.0 | 6.0 | 0.00 | 0.00 | 0.00 | 87 | 1014.3 |
| 20260508094804 | 57 | 204 | 4.0 | 7.0 | 0.00 | 0.00 | 0.00 | 86 | 1014.2 |
| 20260508094300 | 57 | 157 | 4.0 | 7.0 | 0.00 | 0.00 | 0.00 | 86 | 1014.2 |
| 20260508093801 | 57 | 174 | 2.0 | 4.0 | 0.00 | 0.00 | 0.00 | 86 | 1014.3 |
| 20260508092341 | 57 | 236 | 2.0 | 6.0 | 0.00 | 0.00 | 0.00 | 85 | 1014.3 |
| 20260508091839 | 58 | 210 | 2.0 | 5.0 | 0.00 | 0.00 | 0.00 | 85 | 1014.3 |
| 20260508091342 | 58 | 198 | 2.0 | 5.0 | 0.00 | 0.00 | 0.00 | 85 | 1014.2 |
| 20260508090838 | 58 | 218 | 2.0 | 7.0 | 0.00 | 0.00 | 0.00 | 85 | 1014.2 |
| 20260508090339 | 58 | 194 | 2.0 | 7.0 | 0.00 | 0.00 | 0.00 | 84 | 1014.2 |
| 20260508085840 | 58 | 188 | 1.0 | 2.0 | 0.00 | 0.00 | 0.00 | 84 | 1014.1 |
| 20260508084520 | 59 | 191 | 2.0 | 4.0 | 0.00 | 0.00 | 0.00 | 84 | 1014.0 |
| 20260508084021 | 59 | 172 | 1.0 | 2.0 | 0.00 | 0.00 | 0.00 | 84 | 1014.0 |
| 20260508083558 | 60 | 207 | 2.0 | 5.0 | 0.00 | 0.00 | 0.00 | 84 | 1014.2 |
| 20260508082058 | 60 | 211 | 2.0 | 2.0 | 0.00 | 0.00 | 0.00 | 84 | 1014.2 |
| 20260508080827 | 60 | 182 | 2.0 | 5.0 | 0.00 | 0.00 | 0.00 | 84 | 1014.2 |
| 20260508080327 | 61 | 207 | 2.0 | 5.0 | 0.00 | 0.00 | 0.00 | 83 | 1014.1 |
| 20260508075825 | 61 | 218 | 2.0 | 5.0 | 0.00 | 0.00 | 0.00 | 83 | 1014.0 |
| 20260508075310 | 61 | 227 | 1.0 | 1.0 | 0.00 | 0.00 | 0.00 | 83 | 1013.9 |
| 20260508073915 | 62 | 184 | 1.0 | 4.0 | 0.00 | 0.00 | 0.00 | 82 | 1013.9 |
| 20260508073415 | 62 | 207 | 1.0 | 4.0 | 0.00 | 0.00 | 0.00 | 81 | 1013.8 |
| 20260508072914 | 62 | 190 | 2.0 | 5.0 | 0.00 | 0.00 | 0.00 | 81 | 1013.8 |
| 20260508072414 | 62 | 200 | 2.0 | 5.0 | 0.00 | 0.00 | 0.00 | 81 | 1013.9 |
| 20260508071914 | 63 | 197 | 1.0 | 5.0 | 0.00 | 0.00 | 0.00 | 80 | 1013.9 |
| 20260508071415 | 63 | 180 | 0.0 | 3.0 | 0.00 | 0.00 | 0.00 | 80 | 1013.8 |
| 20260508070915 | 63 | 223 | 0.0 | 0.0 | 0.00 | 0.00 | 0.00 | 79 | 1013.8 |
| 20260508070401 | 64 | 239 | 0.0 | 3.0 | 0.00 | 0.00 | 0.00 | 79 | 1013.9 |
| 20260508065857 | 64 | 213 | 1.0 | 4.0 | 0.00 | 0.00 | 0.00 | 79 | 1013.8 |
| 20260508065353 | 64 | 205 | 2.0 | 6.0 | 0.00 | 0.00 | 0.00 | 78 | 1013.6 |
| 20260508065349 | 64 | 185 | 2.0 | 5.0 | 0.00 | 0.00 | 0.00 | 79 | 1013.9 |
| 20260508064352 | 64 | 205 | 2.0 | 6.0 | 0.00 | 0.00 | 0.00 | 78 | 1013.7 |
| 20260508063849 | 65 | 199 | 2.0 | 5.0 | 0.00 | 0.00 | 0.00 | 77 | 1013.7 |
| 20260508063345 | 65 | 214 | 1.0 | 2.0 | 0.00 | 0.00 | 0.00 | 77 | 1013.8 |
| 20260508061912 | 66 | 205 | 2.0 | 5.0 | 0.00 | 0.00 | 0.00 | 77 | 1013.8 |
| 20260508061356 | 66 | 207 | 2.0 | 5.0 | 0.00 | 0.00 | 0.00 | 77 | 1013.9 |
| 20260508060858 | 67 | 212 | 2.0 | 4.0 | 0.00 | 0.00 | 0.00 | 77 | 1013.8 |
| 20260508055327 | 68 | 215 | 1.0 | 4.0 | 0.00 | 0.00 | 0.00 | 75 | 1013.9 |
| 20260508054833 | 68 | 175 | 1.0 | 2.0 | 0.00 | 0.00 | 0.00 | 75 | 1014.0 |
| 20260508054243 | 70 | 215 | 2.0 | 1.0 | 0.00 | 0.00 | 0.00 | 72 | 1013.9 |
| 20260508053704 | 69 | 194 | 2.0 | 5.0 | 0.00 | 0.00 | 0.00 | 73 | 1013.9 |
| 20260508053202 | 69 | 186 | 2.0 | 5.0 | 0.00 | 0.00 | 0.00 | 73 | 1013.9 |
| 20260508051354 | 71 | 206 | 1.0 | 3.0 | 0.00 | 0.00 | 0.00 | 69 | 1014.1 |
| 20260508051259 | 70 | 210 | 1.0 | 5.0 | 0.00 | 0.00 | 0.00 | 71 | 1014.1 |
| 20260508050759 | 71 | 175 | 1.0 | 3.0 | 0.00 | 0.00 | 0.00 | 70 | 1014.0 |
| 20260508050258 | 71 | 209 | 1.0 | 3.0 | 0.00 | 0.00 | 0.00 | 69 | 1014.0 |
| 20260508045251 | 71 | 192 | 1.0 | 3.0 | 0.00 | 0.00 | 0.00 | 68 | 1014.0 |
| 20260508044741 | 72 | 207 | 2.0 | 1.0 | 0.00 | 0.00 | 0.00 | 67 | 1014.0 |
| 20260508043319 | 73 | 206 | 0.0 | 2.0 | 0.00 | 0.00 | 0.00 | 66 | 1013.9 |
| 20260508043315 | 73 | 194 | 1.0 | 3.0 | 0.00 | 0.00 | 0.00 | 67 | 1014.0 |
| 20260508042316 | 74 | 233 | 0.0 | 2.0 | 0.00 | 0.00 | 0.00 | 67 | 1013.8 |
| 20260508041812 | 74 | 236 | 2.0 | 5.0 | 0.00 | 0.00 | 0.00 | 66 | 1013.7 |
| 20260508041258 | 74 | 238 | 3.0 | 7.0 | 0.00 | 0.00 | 0.00 | 65 | 1013.8 |
| 20260508040751 | 75 | 233 | 2.0 | 7.0 | 0.00 | 0.00 | 0.00 | 65 | 1013.7 |
| 20260508040250 | 75 | 221 | 2.0 | 6.0 | 0.00 | 0.00 | 0.00 | 64 | 1013.7 |
| 20260508035750 | 76 | 234 | 4.0 | 7.0 | 0.00 | 0.00 | 0.00 | 63 | 1013.7 |
| 20260508035745 | 76 | 227 | 3.0 | 6.0 | 0.00 | 0.00 | 0.00 | 63 | 1013.7 |
| 20260508034747 | 77 | 252 | 1.0 | 7.0 | 0.00 | 0.00 | 0.00 | 59 | 1013.5 |
| 20260508034743 | 77 | 231 | 3.0 | 7.0 | 0.00 | 0.00 | 0.00 | 61 | 1013.6 |
| 20260508033744 | 78 | 239 | 0.0 | 0.0 | 0.00 | 0.00 | 0.00 | 58 | 1013.4 |
| 20260508033242 | 78 | 238 | 0.0 | 0.0 | 0.00 | 0.00 | 0.00 | 57 | 1013.4 |
| 20260508032722 | 78 | 238 | 0.0 | 0.0 | 0.00 | 0.00 | 0.00 | 56 | 1013.5 |
| 20260508032220 | 79 | 237 | 0.0 | 0.0 | 0.00 | 0.00 | 0.00 | 56 | 1013.4 |
| 20260508031710 | 79 | 237 | 0.0 | 0.0 | 0.00 | 0.00 | 0.00 | 55 | 1013.4 |
| 20260508031205 | 79 | 237 | 0.0 | 0.0 | 0.00 | 0.00 | 0.00 | 54 | 1013.4 |
| 20260508030658 | 80 | 237 | 0.0 | 0.0 | 0.00 | 0.00 | 0.00 | 53 | 1013.3 |
| 20260508030136 | 80 | 237 | 0.0 | 0.0 | 0.00 | 0.00 | 0.00 | 53 | 1013.3 |
| 20260508025637 | 81 | 237 | 0.0 | 0.0 | 0.00 | 0.00 | 0.00 | 52 | 1013.3 |
| 20260508025130 | 81 | 237 | 0.0 | 0.0 | 0.00 | 0.00 | 0.00 | 51 | 1013.3 |
| 20260508024627 | 81 | 237 | 0.0 | 0.0 | 0.00 | 0.00 | 0.00 | 51 | 1013.3 |
| 20260508023320 | 82 | 237 | 0.0 | 0.0 | 0.00 | 0.00 | 0.00 | 50 | 1013.3 |
| 20260508022814 | 82 | 237 | 0.0 | 1.0 | 0.00 | 0.00 | 0.00 | 50 | 1013.3 |
| 20260508022317 | 82 | 237 | 0.0 | 2.0 | 0.00 | 0.00 | 0.00 | 49 | 1013.4 |
| 20260508021817 | 82 | 237 | 0.0 | 2.0 | 0.00 | 0.00 | 0.00 | 49 | 1013.4 |
| 20260508021309 | 82 | 238 | 0.0 | 0.0 | 0.00 | 0.00 | 0.00 | 50 | 1013.3 |
| 20260508020759 | 82 | 232 | 0.0 | 0.0 | 0.00 | 0.00 | 0.00 | 48 | 1013.3 |
| 20260508020226 | 83 | 232 | 0.0 | 2.0 | 0.00 | 0.00 | 0.00 | 48 | 1013.2 |
| 20260508015720 | 83 | 232 | 0.0 | 4.0 | 0.00 | 0.00 | 0.00 | 48 | 1013.2 |
| 20260508015219 | 83 | 185 | 0.0 | 3.0 | 0.00 | 0.00 | 0.00 | 49 | 1013.3 |
| 20260508015212 | 83 | 231 | 0.0 | 4.0 | 0.00 | 0.00 | 0.00 | 48 | 1013.3 |
| 20260508014204 | 83 | 180 | 0.0 | 3.0 | 0.00 | 0.00 | 0.00 | 49 | 1013.3 |
| 20260508013654 | 83 | 180 | 0.0 | 0.0 | 0.00 | 0.00 | 0.00 | 49 | 1013.4 |
| 20260508012319 | 83 | 42 | 0.0 | 3.0 | 0.00 | 0.00 | 0.00 | 49 | 1013.6 |
| 20260508011819 | 84 | 30 | 1.0 | 6.0 | 0.00 | 0.00 | 0.00 | 49 | 1013.5 |
| 20260508011308 | 84 | 30 | 1.0 | 6.0 | 0.00 | 0.00 | 0.00 | 49 | 1013.6 |
| 20260508010812 | 84 | 244 | 1.0 | 6.0 | 0.00 | 0.00 | 0.00 | 49 | 1013.5 |
| 20260508010312 | 84 | 16 | 0.0 | 6.0 | 0.00 | 0.00 | 0.00 | 48 | 1013.6 |
| 20260508010302 | 84 | 32 | 1.0 | 6.0 | 0.00 | 0.00 | 0.00 | 49 | 1013.6 |
| 20260508005306 | 85 | 277 | 1.0 | 5.0 | 0.00 | 0.00 | 0.00 | 48 | 1013.7 |
| 20260508005301 | 85 | 245 | 1.0 | 7.0 | 0.00 | 0.00 | 0.00 | 48 | 1013.7 |
| 20260508004759 | 85 | 30 | 1.0 | 7.0 | 0.00 | 0.00 | 0.00 | 47 | 1013.7 |
| 20260508003754 | 85 | 32 | 2.0 | 5.0 | 0.00 | 0.00 | 0.00 | 47 | 1013.8 |
| 20260508003746 | 85 | 313 | 2.0 | 2.0 | 0.00 | 0.00 | 0.00 | 47 | 1013.8 |
| 20260508002409 | 86 | 60 | 1.0 | 3.0 | 0.00 | 0.00 | 0.00 | 46 | 1013.9 |
| 20260508001401 | 86 | 272 | 1.0 | 7.0 | 0.00 | 0.00 | 0.00 | 45 | 1014.0 |
| 20260508000858 | 86 | 9 | 1.0 | 7.0 | 0.00 | 0.00 | 0.00 | 45 | 1013.9 |
| 20260508000357 | 86 | 241 | 1.0 | 4.0 | 0.00 | 0.00 | 0.00 | 44 | 1013.9 |
| 20260507235314 | 87 | 15 | 1.0 | 0.0 | 0.00 | 0.00 | 0.00 | 44 | 1013.9 |
| 20260507233824 | 87 | 42 | 1.0 | 4.0 | 0.00 | 0.00 | 0.00 | 43 | 1013.9 |
| 20260507233316 | 87 | 355 | 1.0 | 4.0 | 0.00 | 0.00 | 0.00 | 43 | 1014.0 |
| 20260507232812 | 86 | 261 | 1.0 | 4.0 | 0.00 | 0.00 | 0.00 | 45 | 1014.1 |
| 20260507232249 | 86 | 244 | 0.0 | 4.0 | 0.00 | 0.00 | 0.00 | 45 | 1014.2 |
| 20260507231116 | 85 | 252 | 2.0 | 6.0 | 0.00 | 0.00 | 0.00 | 46 | 1014.4 |
| 20260507230617 | 85 | 350 | 2.0 | 6.0 | 0.00 | 0.00 | 0.00 | 45 | 1014.5 |
| 20260507230118 | 85 | 82 | 2.0 | 6.0 | 0.00 | 0.00 | 0.00 | 46 | 1014.4 |
| 20260507225619 | 85 | 37 | 1.0 | 6.0 | 0.00 | 0.00 | 0.00 | 46 | 1014.5 |
| 20260507225119 | 85 | 236 | 0.0 | 4.0 | 0.00 | 0.00 | 0.00 | 46 | 1014.7 |
| 20260507224618 | 85 | 234 | 0.0 | 4.0 | 0.00 | 0.00 | 0.00 | 47 | 1014.7 |
| 20260507224115 | 84 | 288 | 1.0 | 0.0 | 0.00 | 0.00 | 0.00 | 46 | 1014.7 |
| 20260507223047 | 84 | 25 | 1.0 | 2.0 | 0.00 | 0.00 | 0.00 | 47 | 1014.9 |
| 20260507221255 | 84 | 225 | 1.0 | 4.0 | 0.00 | 0.00 | 0.00 | 48 | 1015.3 |
| 20260507220751 | 83 | 293 | 1.0 | 1.0 | 0.00 | 0.00 | 0.00 | 49 | 1015.4 |
| 20260507215920 | 83 | 231 | 2.0 | 7.0 | 0.00 | 0.00 | 0.00 | 49 | 1015.6 |
| 20260507215650 | 83 | 248 | 0.0 | 4.0 | 0.00 | 0.00 | 0.00 | 48 | 1015.6 |
| 20260507214423 | 82 | 49 | 2.0 | 5.0 | 0.00 | 0.00 | 0.00 | 49 | 1015.5 |
| 20260507214417 | 83 | 11 | 1.0 | 5.0 | 0.00 | 0.00 | 0.00 | 50 | 1015.7 |
| 20260507214141 | 82 | 66 | 2.0 | 6.0 | 0.00 | 0.00 | 0.00 | 50 | 1015.6 |
| 20260507212912 | 82 | 35 | 2.0 | 6.0 | 0.00 | 0.00 | 0.00 | 50 | 1015.7 |
| 20260507212409 | 81 | 76 | 2.0 | 7.0 | 0.00 | 0.00 | 0.00 | 50 | 1015.8 |
| 20260507211907 | 81 | 36 | 1.0 | 7.0 | 0.00 | 0.00 | 0.00 | 51 | 1015.9 |
| 20260507211358 | 81 | 60 | 1.0 | 6.0 | 0.00 | 0.00 | 0.00 | 51 | 1016.1 |
| 20260507210901 | 80 | 28 | 2.0 | 6.0 | 0.00 | 0.00 | 0.00 | 51 | 1016.1 |
| 20260507210356 | 82 | 349 | 2.0 | 5.0 | 0.00 | 0.00 | 0.00 | 51 | 1016.1 |
| 20260507205900 | 82 | 227 | 1.0 | 5.0 | 0.00 | 0.00 | 0.00 | 49 | 1016.0 |
| 20260507205356 | 82 | 64 | 1.0 | 5.0 | 0.00 | 0.00 | 0.00 | 51 | 1016.0 |
| 20260507204855 | 80 | 57 | 2.0 | 5.0 | 0.00 | 0.00 | 0.00 | 51 | 1016.1 |
| 20260507204351 | 80 | 38 | 3.0 | 1.0 | 0.00 | 0.00 | 0.00 | 52 | 1016.2 |
| 20260507203216 | 80 | 10 | 1.0 | 5.0 | 0.00 | 0.00 | 0.00 | 52 | 1016.4 |
| 20260507202713 | 81 | 257 | 1.0 | 5.0 | 0.00 | 0.00 | 0.00 | 51 | 1016.5 |
| 20260507202658 | 81 | 235 | 1.0 | 5.0 | 0.00 | 0.00 | 0.00 | 52 | 1016.5 |
| 20260507201650 | 79 | 286 | 2.0 | 7.0 | 0.00 | 0.00 | 0.00 | 54 | 1016.4 |
| 20260507201154 | 78 | 244 | 1.0 | 5.0 | 0.00 | 0.00 | 0.00 | 55 | 1016.5 |
| 20260507201149 | 79 | 34 | 1.0 | 7.0 | 0.00 | 0.00 | 0.00 | 54 | 1016.5 |
| 20260507200155 | 79 | 58 | 2.0 | 2.0 | 0.00 | 0.00 | 0.00 | 53 | 1016.7 |
| 20260507200149 | 79 | 331 | 2.0 | 5.0 | 0.00 | 0.00 | 0.00 | 54 | 1016.5 |
| 20260507194300 | 78 | 225 | 1.0 | 4.0 | 0.00 | 0.00 | 0.00 | 54 | 1016.8 |
| 20260507193801 | 78 | 313 | 1.0 | 6.0 | 0.00 | 0.00 | 0.00 | 54 | 1016.9 |
| 20260507193301 | 78 | 29 | 1.0 | 6.0 | 0.00 | 0.00 | 0.00 | 55 | 1017.0 |
| 20260507192757 | 77 | 25 | 1.0 | 6.0 | 0.00 | 0.00 | 0.00 | 55 | 1017.0 |
| 20260507192259 | 78 | 225 | 2.0 | 6.0 | 0.00 | 0.00 | 0.00 | 54 | 1017.1 |
| 20260507191757 | 78 | 242 | 2.0 | 6.0 | 0.00 | 0.00 | 0.00 | 55 | 1017.1 |
| 20260507191258 | 78 | 271 | 1.0 | 5.0 | 0.00 | 0.00 | 0.00 | 54 | 1017.1 |
| 20260507190758 | 77 | 249 | 2.0 | 6.0 | 0.00 | 0.00 | 0.00 | 55 | 1017.0 |
| 20260507190304 | 76 | 348 | 2.0 | 6.0 | 0.00 | 0.00 | 0.00 | 56 | 1017.1 |
| 20260507190258 | 77 | 257 | 2.0 | 6.0 | 0.00 | 0.00 | 0.00 | 56 | 1017.2 |
| 20260507185754 | 77 | 39 | 2.0 | 5.0 | 0.00 | 0.00 | 0.00 | 56 | 1017.1 |
| 20260507184752 | 77 | 325 | 3.0 | 6.0 | 0.00 | 0.00 | 0.00 | 56 | 1017.2 |
| 20260507184259 | 76 | 234 | 2.0 | 6.0 | 0.00 | 0.00 | 0.00 | 57 | 1017.2 |
| 20260507183753 | 76 | 44 | 2.0 | 6.0 | 0.00 | 0.00 | 0.00 | 57 | 1017.2 |
| 20260507183249 | 76 | 227 | 3.0 | 0.0 | 0.00 | 0.00 | 0.00 | 56 | 1017.2 |
| 20260507182418 | 76 | 234 | 1.0 | 7.0 | 0.00 | 0.00 | 0.00 | 58 | 1017.4 |
| 20260507181418 | 75 | 243 | 1.0 | 7.0 | 0.00 | 0.00 | 0.00 | 58 | 1017.3 |
| 20260507180911 | 74 | 297 | 1.0 | 5.0 | 0.00 | 0.00 | 0.00 | 60 | 1017.1 |
| 20260507180412 | 74 | 30 | 2.0 | 5.0 | 0.00 | 0.00 | 0.00 | 61 | 1017.2 |
| 20260507175907 | 74 | 23 | 2.0 | 5.0 | 0.00 | 0.00 | 0.00 | 58 | 1017.3 |
| 20260507175405 | 74 | 242 | 2.0 | 5.0 | 0.00 | 0.00 | 0.00 | 61 | 1017.3 |
| 20260507174905 | 73 | 233 | 1.0 | 2.0 | 0.00 | 0.00 | 0.00 | 61 | 1017.3 |
| 20260507173249 | 74 | 36 | 2.0 | 5.0 | 0.00 | 0.00 | 0.00 | 60 | 1017.3 |
| 20260507172750 | 73 | 259 | 3.0 | 0.0 | 0.00 | 0.00 | 0.00 | 60 | 1017.3 |
| 20260507171446 | 72 | 21 | 1.0 | 5.0 | 0.00 | 0.00 | 0.00 | 63 | 1017.3 |
| 20260507170949 | 71 | 247 | 0.0 | 0.0 | 0.00 | 0.00 | 0.00 | 64 | 1017.2 |
| 20260507170945 | 72 | 241 | 0.0 | 5.0 | 0.00 | 0.00 | 0.00 | 64 | 1017.3 |
| 20260507165943 | 71 | 246 | 0.0 | 0.0 | 0.00 | 0.00 | 0.00 | 64 | 1017.2 |
| 20260507165441 | 71 | 233 | 0.0 | 0.0 | 0.00 | 0.00 | 0.00 | 63 | 1017.3 |
| 20260507164939 | 71 | 234 | 0.0 | 0.0 | 0.00 | 0.00 | 0.00 | 65 | 1017.3 |
| 20260507164935 | 71 | 233 | 0.0 | 0.0 | 0.00 | 0.00 | 0.00 | 63 | 1017.3 |
| 20260507163315 | 70 | 229 | 0.0 | 0.0 | 0.00 | 0.00 | 0.00 | 68 | 1017.3 |
| 20260507162800 | 69 | 229 | 0.0 | 0.0 | 0.00 | 0.00 | 0.00 | 67 | 1017.3 |
| 20260507162301 | 69 | 229 | 0.0 | 0.0 | 0.00 | 0.00 | 0.00 | 67 | 1017.4 |
| 20260507161757 | 69 | 219 | 0.0 | 0.0 | 0.00 | 0.00 | 0.00 | 68 | 1017.3 |
| 20260507161250 | 68 | 194 | 0.0 | 0.0 | 0.00 | 0.00 | 0.00 | 69 | 1017.3 |
| 20260507160722 | 68 | 191 | 0.0 | 0.0 | 0.00 | 0.00 | 0.00 | 70 | 1017.5 |
| 20260507160222 | 67 | 137 | 0.0 | 1.0 | 0.00 | 0.00 | 0.00 | 70 | 1017.5 |
| 20260507155726 | 67 | 227 | 0.0 | 2.0 | 0.00 | 0.00 | 0.00 | 70 | 1017.4 |
| 20260507155222 | 66 | 229 | 0.0 | 3.0 | 0.00 | 0.00 | 0.00 | 71 | 1017.5 |
| 20260507154724 | 66 | 230 | 1.0 | 4.0 | 0.00 | 0.00 | 0.00 | 70 | 1017.4 |
| 20260507154219 | 66 | 202 | 1.0 | 4.0 | 0.00 | 0.00 | 0.00 | 71 | 1017.4 |
| 20260507153719 | 66 | 197 | 1.0 | 3.0 | 0.00 | 0.00 | 0.00 | 71 | 1017.4 |
| 20260507153215 | 65 | 229 | 1.0 | 1.0 | 0.00 | 0.00 | 0.00 | 72 | 1017.4 |
| 20260507151949 | 65 | 222 | 1.0 | 3.0 | 0.00 | 0.00 | 0.00 | 73 | 1017.4 |
| 20260507150812 | 64 | 188 | 0.0 | 4.0 | 0.00 | 0.00 | 0.00 | 73 | 1017.3 |
| 20260507150309 | 65 | 204 | 1.0 | 4.0 | 0.00 | 0.00 | 0.00 | 74 | 1017.3 |
| 20260507145810 | 64 | 229 | 1.0 | 4.0 | 0.00 | 0.00 | 0.00 | 74 | 1017.4 |
| 20260507145309 | 64 | 229 | 1.0 | 4.0 | 0.00 | 0.00 | 0.00 | 75 | 1017.4 |
| 20260507144809 | 64 | 206 | 1.0 | 3.0 | 0.00 | 0.00 | 0.00 | 76 | 1017.4 |
| 20260507144804 | 64 | 171 | 0.0 | 2.0 | 0.00 | 0.00 | 0.00 | 78 | 1017.3 |
| 20260507143758 | 63 | 186 | 0.0 | 2.0 | 0.00 | 0.00 | 0.00 | 79 | 1017.3 |
| 20260507142206 | 62 | 186 | 0.0 | 2.0 | 0.00 | 0.00 | 0.00 | 83 | 1017.0 |
| 20260507141632 | 61 | 184 | 0.0 | 2.0 | 0.00 | 0.00 | 0.00 | 85 | 1017.1 |
| 20260507141132 | 60 | 204 | 0.0 | 2.0 | 0.00 | 0.00 | 0.00 | 86 | 1017.0 |
| 20260507140634 | 60 | 155 | 0.0 | 2.0 | 0.00 | 0.00 | 0.00 | 86 | 1016.9 |
| 20260507140620 | 60 | 178 | 0.0 | 2.0 | 0.00 | 0.00 | 0.00 | 87 | 1016.6 |
| 20260507135618 | 59 | 178 | 0.0 | 4.0 | 0.00 | 0.00 | 0.00 | 87 | 1016.6 |
| 20260507135120 | 59 | 175 | 0.0 | 4.0 | 0.00 | 0.00 | 0.00 | 88 | 1016.5 |
| 20260507134607 | 58 | 171 | 0.0 | 0.0 | 0.00 | 0.00 | 0.00 | 89 | 1016.6 |
| 20260507133424 | 58 | 156 | 0.0 | 2.0 | 0.00 | 0.00 | 0.00 | 89 | 1016.4 |
| 20260507132918 | 57 | 166 | 0.0 | 2.0 | 0.00 | 0.00 | 0.00 | 89 | 1016.4 |
| 20260507132420 | 57 | 157 | 0.0 | 2.0 | 0.00 | 0.00 | 0.00 | 89 | 1016.4 |
| 20260507131919 | 57 | 169 | 0.0 | 2.0 | 0.00 | 0.00 | 0.00 | 89 | 1016.4 |
| 20260507131421 | 57 | 153 | 0.0 | 2.0 | 0.00 | 0.00 | 0.00 | 89 | 1016.4 |
| 20260507130919 | 57 | 136 | 0.0 | 2.0 | 0.00 | 0.00 | 0.00 | 88 | 1016.3 |
| 20260507130415 | 57 | 152 | 0.0 | 2.0 | 0.00 | 0.00 | 0.00 | 88 | 1016.3 |
| 20260507125907 | 57 | 149 | 0.0 | 2.0 | 0.00 | 0.00 | 0.00 | 88 | 1016.4 |
| 20260507125407 | 57 | 151 | 0.0 | 0.0 | 0.00 | 0.00 | 0.00 | 88 | 1016.4 |
| 20260507124250 | 57 | 161 | 0.0 | 2.0 | 0.00 | 0.00 | 0.00 | 88 | 1016.2 |
| 20260507124242 | 57 | 143 | 1.0 | 2.0 | 0.00 | 0.00 | 0.00 | 88 | 1016.2 |
| 20260507123729 | 57 | 171 | 1.0 | 0.0 | 0.00 | 0.00 | 0.00 | 88 | 1016.2 |
| 20260507122342 | 57 | 151 | 0.0 | 2.0 | 0.00 | 0.00 | 0.00 | 87 | 1016.2 |